| time (UTC) | temp F | wind direction | speed MPH | gust MPH | rain 1hr in | rain 24hr in | rain mn in | humidity % | barometer mb |
| 20260902065043 | 76 | 200 | 0.0 | 1.0 | 0.00 | 0.00 | 0.00 | 92 | 1014.2 |
| 20260902064538 | 76 | 254 | 0.0 | 0.0 | 0.00 | 0.00 | 0.00 | 92 | 1014.5 |
| 20260902064033 | 76 | 239 | 2.0 | 2.0 | 0.00 | 0.00 | 0.00 | 92 | 1014.5 |
| 20260902063532 | 76 | 279 | 0.0 | 1.0 | 0.00 | 0.00 | 0.00 | 92 | 1014.2 |
| 20260902063028 | 76 | 60 | 0.0 | 1.0 | 0.00 | 0.00 | 0.00 | 92 | 1014.3 |
| 20260902062526 | 76 | 294 | 0.0 | 2.0 | 0.00 | 0.00 | 0.00 | 92 | 1014.4 |
| 20260902062022 | 76 | 20 | 0.0 | 0.0 | 0.00 | 0.00 | 0.00 | 92 | 1014.3 |
| 20260902061516 | 76 | 20 | 0.0 | 0.0 | 0.00 | 0.00 | 0.00 | 91 | 1014.5 |
| 20260902061012 | 76 | 20 | 0.0 | 0.0 | 0.00 | 0.00 | 0.00 | 91 | 1014.3 |
| 20260902060508 | 76 | 261 | 0.0 | 0.0 | 0.00 | 0.00 | 0.00 | 91 | 1014.3 |
| 20260902060004 | 76 | 261 | 0.0 | 0.0 | 0.00 | 0.00 | 0.00 | 91 | 1014.5 |
| 20260902055500 | 77 | 237 | 0.0 | 2.0 | 0.00 | 0.00 | 0.00 | 90 | 1014.2 |
| 20260902054955 | 77 | 75 | 0.0 | 0.0 | 0.00 | 0.00 | 0.00 | 89 | 1014.3 |
| 20260902054450 | 77 | 75 | 0.0 | 0.0 | 0.00 | 0.00 | 0.00 | 89 | 1014.1 |
| 20260902053946 | 77 | 246 | 0.0 | 0.0 | 0.00 | 0.00 | 0.00 | 89 | 1014.2 |
| 20260902053441 | 77 | 246 | 0.0 | 1.0 | 0.00 | 0.00 | 0.00 | 88 | 1014.3 |
| 20260902052940 | 77 | 270 | 0.0 | 1.0 | 0.00 | 0.00 | 0.00 | 88 | 1014.2 |
| 20260902052435 | 77 | 82 | 0.0 | 1.0 | 0.00 | 0.00 | 0.00 | 88 | 1014.1 |
| 20260902051930 | 77 | 151 | 0.0 | 0.0 | 0.00 | 0.00 | 0.00 | 89 | 1014.2 |
| 20260902051425 | 77 | 254 | 0.0 | 1.0 | 0.00 | 0.00 | 0.00 | 89 | 1014.2 |
| 20260902050924 | 77 | 249 | 0.0 | 2.0 | 0.00 | 0.00 | 0.00 | 89 | 1013.9 |
| 20260902050424 | 77 | 254 | 0.0 | 2.0 | 0.00 | 0.00 | 0.00 | 88 | 1014.2 |
| 20260902045919 | 77 | 262 | 1.0 | 2.0 | 0.00 | 0.00 | 0.00 | 87 | 1014.0 |
| 20260902045414 | 77 | 270 | 0.0 | 0.0 | 0.00 | 0.00 | 0.00 | 87 | 1014.3 |
| 20260902044910 | 77 | 74 | 0.0 | 0.0 | 0.00 | 0.00 | 0.00 | 88 | 1014.2 |
| 20260902044405 | 77 | 74 | 0.0 | 0.0 | 0.00 | 0.00 | 0.00 | 88 | 1014.1 |
| 20260902043901 | 77 | 74 | 0.0 | 0.0 | 0.00 | 0.00 | 0.00 | 87 | 1014.3 |
| 20260902043355 | 78 | 74 | 0.0 | 0.0 | 0.00 | 0.00 | 0.00 | 86 | 1014.5 |
| 20260902042850 | 78 | 74 | 0.0 | 0.0 | 0.00 | 0.00 | 0.00 | 86 | 1014.3 |
| 20260902042344 | 78 | 74 | 0.0 | 0.0 | 0.00 | 0.00 | 0.00 | 85 | 1014.4 |
| 20260902041839 | 78 | 74 | 0.0 | 0.0 | 0.00 | 0.00 | 0.00 | 85 | 1014.3 |
| 20260902041334 | 79 | 74 | 0.0 | 0.0 | 0.00 | 0.00 | 0.00 | 85 | 1014.5 |
| 20260902040832 | 79 | 74 | 0.0 | 0.0 | 0.00 | 0.00 | 0.00 | 85 | 1014.3 |
| 20260902040328 | 79 | 74 | 1.0 | 2.0 | 0.00 | 0.00 | 0.00 | 85 | 1014.4 |
| 20260902035827 | 79 | 8 | 0.0 | 0.0 | 0.00 | 0.00 | 0.00 | 84 | 1014.3 |
| 20260902035323 | 79 | 8 | 0.0 | 0.0 | 0.00 | 0.00 | 0.00 | 83 | 1014.2 |
| 20260902034821 | 79 | 63 | 0.0 | 0.0 | 0.00 | 0.00 | 0.00 | 82 | 1014.0 |
| 20260902034317 | 79 | 63 | 0.0 | 0.0 | 0.00 | 0.00 | 0.00 | 82 | 1014.2 |
| 20260902033814 | 80 | 63 | 0.0 | 0.0 | 0.00 | 0.00 | 0.00 | 81 | 1014.0 |
| 20260902033310 | 80 | 63 | 0.0 | 0.0 | 0.00 | 0.00 | 0.00 | 81 | 1013.9 |
| 20260902032809 | 80 | 63 | 0.0 | 0.0 | 0.00 | 0.00 | 0.00 | 80 | 1014.0 |
| 20260902032306 | 80 | 63 | 0.0 | 0.0 | 0.00 | 0.00 | 0.00 | 79 | 1014.2 |
| 20260902031803 | 81 | 63 | 0.0 | 0.0 | 0.00 | 0.00 | 0.00 | 79 | 1013.9 |
| 20260902031300 | 81 | 63 | 0.0 | 0.0 | 0.00 | 0.00 | 0.00 | 78 | 1014.0 |
| 20260902030755 | 82 | 63 | 0.0 | 0.0 | 0.00 | 0.00 | 0.00 | 76 | 1013.7 |
| 20260902030250 | 82 | 63 | 0.0 | 0.0 | 0.00 | 0.00 | 0.00 | 76 | 1014.0 |
| 20260902025748 | 82 | 0 | 0.0 | 1.0 | 0.00 | 0.00 | 0.00 | 76 | 1013.8 |
| 20260902025243 | 83 | 111 | 1.0 | 1.0 | 0.00 | 0.00 | 0.00 | 75 | 1013.7 |
| 20260902024738 | 83 | 165 | 0.0 | 1.0 | 0.00 | 0.00 | 0.00 | 74 | 1013.7 |
| 20260902024234 | 83 | 157 | 0.0 | 2.0 | 0.00 | 0.00 | 0.00 | 74 | 1013.7 |
| 20260902023729 | 83 | 66 | 0.0 | 1.0 | 0.00 | 0.00 | 0.00 | 74 | 1013.5 |
| 20260902023224 | 84 | 107 | 0.0 | 2.0 | 0.00 | 0.00 | 0.00 | 73 | 1013.5 |
| 20260902022724 | 84 | 90 | 0.0 | 3.0 | 0.00 | 0.00 | 0.00 | 73 | 1013.4 |
| 20260902022220 | 84 | 82 | 0.0 | 1.0 | 0.00 | 0.00 | 0.00 | 73 | 1013.1 |
| 20260902021715 | 84 | 90 | 0.0 | 2.0 | 0.00 | 0.00 | 0.00 | 72 | 1013.2 |
| 20260902021209 | 84 | 98 | 0.0 | 5.0 | 0.00 | 0.00 | 0.00 | 72 | 1012.9 |
| 20260902020706 | 84 | 139 | 0.0 | 4.0 | 0.00 | 0.00 | 0.00 | 72 | 1013.1 |
| 20260902020202 | 85 | 101 | 0.0 | 4.0 | 0.00 | 0.00 | 0.00 | 71 | 1013.2 |
| 20260902015657 | 85 | 105 | 2.0 | 4.0 | 0.00 | 0.00 | 0.00 | 71 | 1012.9 |
| 20260902015153 | 85 | 103 | 2.0 | 5.0 | 0.00 | 0.00 | 0.00 | 70 | 1013.0 |
| 20260902014648 | 85 | 90 | 2.0 | 5.0 | 0.00 | 0.00 | 0.00 | 69 | 1012.7 |
| 20260902014138 | 86 | 112 | 4.0 | 7.0 | 0.00 | 0.00 | 0.00 | 69 | 1012.7 |
| 20260902013637 | 86 | 100 | 2.0 | 6.0 | 0.00 | 0.00 | 0.00 | 68 | 1012.9 |
| 20260902013133 | 86 | 105 | 3.0 | 9.0 | 0.00 | 0.00 | 0.00 | 67 | 1012.4 |
| 20260902012628 | 87 | 90 | 1.0 | 9.0 | 0.00 | 0.00 | 0.00 | 67 | 1012.4 |
| 20260902012124 | 87 | 85 | 2.0 | 7.0 | 0.00 | 0.00 | 0.00 | 67 | 1012.4 |
| 20260902011619 | 88 | 99 | 1.0 | 8.0 | 0.00 | 0.00 | 0.00 | 65 | 1012.4 |
| 20260902011119 | 88 | 129 | 2.0 | 8.0 | 0.00 | 0.00 | 0.00 | 64 | 1012.3 |
| 20260902010612 | 89 | 96 | 5.0 | 9.0 | 0.00 | 0.00 | 0.00 | 61 | 1012.2 |
| 20260902010108 | 90 | 66 | 3.0 | 5.0 | 0.00 | 0.00 | 0.00 | 58 | 1012.1 |
| 20260902005606 | 90 | 77 | 0.0 | 2.0 | 0.00 | 0.00 | 0.00 | 56 | 1012.0 |
| 20260902005102 | 91 | 69 | 0.0 | 2.0 | 0.00 | 0.00 | 0.00 | 54 | 1011.8 |
| 20260902004601 | 92 | 82 | 0.0 | 2.0 | 0.00 | 0.00 | 0.00 | 53 | 1012.0 |
| 20260902004056 | 92 | 71 | 0.0 | 3.0 | 0.00 | 0.00 | 0.00 | 52 | 1011.9 |
| 20260902003552 | 92 | 109 | 2.0 | 2.0 | 0.00 | 0.00 | 0.00 | 52 | 1012.0 |
| 20260902003047 | 93 | 48 | 2.0 | 2.0 | 0.00 | 0.00 | 0.00 | 51 | 1011.9 |
| 20260902002543 | 93 | 102 | 2.0 | 2.0 | 0.00 | 0.00 | 0.00 | 50 | 1012.0 |
| 20260902002037 | 94 | 103 | 0.0 | 3.0 | 0.00 | 0.00 | 0.00 | 49 | 1011.7 |
| 20260902001532 | 95 | 90 | 1.0 | 1.0 | 0.00 | 0.00 | 0.00 | 49 | 1011.6 |
| 20260902001027 | 95 | 90 | 0.0 | 2.0 | 0.00 | 0.00 | 0.00 | 48 | 1011.7 |
| 20260902000522 | 96 | 168 | 0.0 | 2.0 | 0.00 | 0.00 | 0.00 | 48 | 1011.9 |
| 20260902000018 | 96 | 139 | 0.0 | 2.0 | 0.00 | 0.00 | 0.00 | 47 | 1011.8 |
| 20260901235512 | 96 | 90 | 0.0 | 3.0 | 0.00 | 0.00 | 0.00 | 47 | 1011.8 |
| 20260901235008 | 96 | 23 | 3.0 | 4.0 | 0.00 | 0.00 | 0.00 | 47 | 1011.7 |
| 20260901234506 | 95 | 97 | 0.0 | 3.0 | 0.00 | 0.00 | 0.00 | 48 | 1011.8 |
| 20260901234002 | 95 | 74 | 0.0 | 5.0 | 0.00 | 0.00 | 0.00 | 48 | 1011.7 |
| 20260901233456 | 95 | 97 | 1.0 | 3.0 | 0.00 | 0.00 | 0.00 | 49 | 1011.9 |
| 20260901232953 | 96 | 90 | 2.0 | 3.0 | 0.00 | 0.00 | 0.00 | 48 | 1012.0 |
| 20260901232448 | 95 | 86 | 3.0 | 5.0 | 0.00 | 0.00 | 0.00 | 49 | 1011.9 |
| 20260901231943 | 95 | 96 | 2.0 | 3.0 | 0.00 | 0.00 | 0.00 | 49 | 1011.6 |
| 20260901231439 | 95 | 98 | 3.0 | 9.0 | 0.00 | 0.00 | 0.00 | 49 | 1012.0 |
| 20260901230936 | 97 | 94 | 5.0 | 7.0 | 0.00 | 0.00 | 0.00 | 48 | 1012.0 |
| 20260901230435 | 97 | 81 | 3.0 | 7.0 | 0.00 | 0.00 | 0.00 | 47 | 1011.8 |
| 20260901225930 | 97 | 59 | 5.0 | 5.0 | 0.00 | 0.00 | 0.00 | 46 | 1011.9 |
| 20260901225424 | 96 | 75 | 5.0 | 7.0 | 0.00 | 0.00 | 0.00 | 48 | 1011.9 |
| 20260901224920 | 96 | 11 | 0.0 | 4.0 | 0.00 | 0.00 | 0.00 | 48 | 1011.9 |
| 20260901224416 | 97 | 79 | 3.0 | 3.0 | 0.00 | 0.00 | 0.00 | 46 | 1012.0 |
| 20260901223912 | 97 | 79 | 4.0 | 8.0 | 0.00 | 0.00 | 0.00 | 47 | 1012.0 |
| 20260901223407 | 96 | 21 | 4.0 | 5.0 | 0.00 | 0.00 | 0.00 | 47 | 1012.1 |
| 20260901222902 | 96 | 64 | 4.0 | 9.0 | 0.00 | 0.00 | 0.00 | 48 | 1012.2 |
| 20260901222358 | 96 | 96 | 2.0 | 6.0 | 0.00 | 0.00 | 0.00 | 48 | 1011.9 |
| 20260901221854 | 96 | 51 | 5.0 | 7.0 | 0.00 | 0.00 | 0.00 | 47 | 1012.1 |
| 20260901221349 | 96 | 35 | 5.0 | 9.0 | 0.00 | 0.00 | 0.00 | 47 | 1011.9 |
| 20260901220844 | 97 | 94 | 3.0 | 6.0 | 0.00 | 0.00 | 0.00 | 46 | 1012.1 |
| 20260901220342 | 96 | 51 | 0.0 | 6.0 | 0.00 | 0.00 | 0.00 | 48 | 1012.0 |
| 20260901215842 | 96 | 69 | 3.0 | 9.0 | 0.00 | 0.00 | 0.00 | 48 | 1012.0 |
| 20260901215341 | 96 | 90 | 3.0 | 6.0 | 0.00 | 0.00 | 0.00 | 50 | 1012.3 |
| 20260901214839 | 96 | 99 | 0.0 | 3.0 | 0.00 | 0.00 | 0.00 | 50 | 1012.1 |
| 20260901214338 | 96 | 88 | 5.0 | 7.0 | 0.00 | 0.00 | 0.00 | 51 | 1012.1 |
| 20260901213833 | 96 | 70 | 4.0 | 10.0 | 0.00 | 0.00 | 0.00 | 51 | 1012.2 |
| 20260901213327 | 97 | 90 | 3.0 | 12.0 | 0.00 | 0.00 | 0.00 | 49 | 1012.3 |
| 20260901212822 | 97 | 97 | 6.0 | 11.0 | 0.00 | 0.00 | 0.00 | 49 | 1012.1 |
| 20260901212318 | 98 | 96 | 5.0 | 12.0 | 0.00 | 0.00 | 0.00 | 48 | 1012.1 |
| 20260901211814 | 97 | 114 | 5.0 | 9.0 | 0.00 | 0.00 | 0.00 | 50 | 1012.1 |
| 20260901211310 | 97 | 70 | 5.0 | 8.0 | 0.00 | 0.00 | 0.00 | 50 | 1012.1 |
| 20260901210805 | 98 | 29 | 2.0 | 6.0 | 0.00 | 0.00 | 0.00 | 47 | 1012.1 |
| 20260901210301 | 98 | 99 | 0.0 | 4.0 | 0.00 | 0.00 | 0.00 | 46 | 1012.3 |
| 20260901205757 | 98 | 128 | 3.0 | 7.0 | 0.00 | 0.00 | 0.00 | 47 | 1012.1 |
| 20260901205256 | 98 | 87 | 4.0 | 8.0 | 0.00 | 0.00 | 0.00 | 47 | 1012.6 |
| 20260901204752 | 97 | 72 | 3.0 | 4.0 | 0.00 | 0.00 | 0.00 | 47 | 1012.5 |
| 20260901204247 | 97 | 106 | 8.0 | 10.0 | 0.00 | 0.00 | 0.00 | 47 | 1012.5 |
| 20260901203742 | 98 | 41 | 7.0 | 10.0 | 0.00 | 0.00 | 0.00 | 47 | 1012.6 |
| 20260901203242 | 98 | 100 | 3.0 | 9.0 | 0.00 | 0.00 | 0.00 | 47 | 1012.6 |
| 20260901202741 | 99 | 124 | 0.0 | 9.0 | 0.00 | 0.00 | 0.00 | 45 | 1012.7 |
| 20260901202237 | 97 | 20 | 3.0 | 8.0 | 0.00 | 0.00 | 0.00 | 47 | 1012.7 |
| 20260901201732 | 97 | 77 | 2.0 | 9.0 | 0.00 | 0.00 | 0.00 | 47 | 1013.0 |
| 20260901201226 | 99 | 102 | 6.0 | 10.0 | 0.00 | 0.00 | 0.00 | 46 | 1013.2 |
| 20260901200720 | 99 | 39 | 4.0 | 11.0 | 0.00 | 0.00 | 0.00 | 47 | 1013.0 |
| 20260901200215 | 100 | 39 | 5.0 | 7.0 | 0.00 | 0.00 | 0.00 | 46 | 1013.2 |
| 20260901195713 | 97 | 18 | 2.0 | 9.0 | 0.00 | 0.00 | 0.00 | 48 | 1013.4 |
| 20260901195207 | 96 | 0 | 0.0 | 7.0 | 0.00 | 0.00 | 0.00 | 49 | 1013.3 |
| 20260901194703 | 97 | 73 | 3.0 | 5.0 | 0.00 | 0.00 | 0.00 | 49 | 1013.6 |
| 20260901194152 | 98 | 105 | 3.0 | 7.0 | 0.00 | 0.00 | 0.00 | 48 | 1013.5 |
| 20260901193648 | 98 | 29 | 3.0 | 8.0 | 0.00 | 0.00 | 0.00 | 47 | 1013.6 |
| 20260901193142 | 99 | 0 | 1.0 | 4.0 | 0.00 | 0.00 | 0.00 | 48 | 1013.4 |
| 20260901192637 | 99 | 3 | 2.0 | 5.0 | 0.00 | 0.00 | 0.00 | 47 | 1013.5 |
| 20260901192132 | 99 | 11 | 4.0 | 5.0 | 0.00 | 0.00 | 0.00 | 47 | 1013.6 |
| 20260901191628 | 99 | 90 | 0.0 | 4.0 | 0.00 | 0.00 | 0.00 | 48 | 1013.6 |
| 20260901191124 | 98 | 18 | 3.0 | 4.0 | 0.00 | 0.00 | 0.00 | 50 | 1013.5 |
| 20260901190620 | 95 | 8 | 2.0 | 3.0 | 0.00 | 0.00 | 0.00 | 51 | 1014.0 |
| 20260901190119 | 94 | 22 | 3.0 | 4.0 | 0.00 | 0.00 | 0.00 | 52 | 1013.9 |
| 20260901185617 | 94 | 0 | 2.0 | 3.0 | 0.00 | 0.00 | 0.00 | 54 | 1013.9 |
| 20260901185116 | 94 | 99 | 7.0 | 7.0 | 0.00 | 0.00 | 0.00 | 53 | 1014.1 |
| 20260901184612 | 94 | 30 | 2.0 | 5.0 | 0.00 | 0.00 | 0.00 | 52 | 1014.4 |
| 20260901184108 | 95 | 14 | 3.0 | 5.0 | 0.00 | 0.00 | 0.00 | 53 | 1014.2 |
| 20260901183608 | 97 | 0 | 0.0 | 4.0 | 0.00 | 0.00 | 0.00 | 50 | 1014.3 |
| 20260901183103 | 95 | 341 | 0.0 | 7.0 | 0.00 | 0.00 | 0.00 | 52 | 1014.1 |
| 20260901182559 | 96 | 86 | 3.0 | 9.0 | 0.00 | 0.00 | 0.00 | 52 | 1014.4 |
| 20260901182053 | 95 | 328 | 8.0 | 8.0 | 0.00 | 0.00 | 0.00 | 53 | 1014.5 |
| 20260901181552 | 95 | 19 | 3.0 | 4.0 | 0.00 | 0.00 | 0.00 | 53 | 1014.7 |
| 20260901181046 | 94 | 90 | 2.0 | 8.0 | 0.00 | 0.00 | 0.00 | 54 | 1014.8 |
| 20260901180545 | 94 | 48 | 5.0 | 7.0 | 0.00 | 0.00 | 0.00 | 54 | 1014.9 |
| 20260901180040 | 94 | 52 | 6.0 | 6.0 | 0.00 | 0.00 | 0.00 | 55 | 1015.0 |
| 20260901175539 | 94 | 95 | 2.0 | 5.0 | 0.00 | 0.00 | 0.00 | 55 | 1015.3 |
| 20260901175034 | 94 | 112 | 0.0 | 3.0 | 0.00 | 0.00 | 0.00 | 55 | 1015.1 |
| 20260901174530 | 94 | 84 | 6.0 | 10.0 | 0.00 | 0.00 | 0.00 | 55 | 1015.2 |
| 20260901174026 | 94 | 0 | 3.0 | 5.0 | 0.00 | 0.00 | 0.00 | 55 | 1015.3 |
| 20260901173521 | 95 | 5 | 3.0 | 7.0 | 0.00 | 0.00 | 0.00 | 54 | 1015.5 |
| 20260901173017 | 95 | 53 | 3.0 | 5.0 | 0.00 | 0.00 | 0.00 | 55 | 1015.4 |
| 20260901172512 | 93 | 86 | 3.0 | 5.0 | 0.00 | 0.00 | 0.00 | 58 | 1015.5 |
| 20260901172010 | 95 | 294 | 2.0 | 4.0 | 0.00 | 0.00 | 0.00 | 54 | 1015.6 |
| 20260901171509 | 95 | 352 | 2.0 | 3.0 | 0.00 | 0.00 | 0.00 | 54 | 1015.7 |
| 20260901171008 | 93 | 10 | 5.0 | 6.0 | 0.00 | 0.00 | 0.00 | 57 | 1015.5 |
| 20260901170502 | 93 | 40 | 3.0 | 4.0 | 0.00 | 0.00 | 0.00 | 57 | 1015.8 |
| 20260901170001 | 95 | 86 | 5.0 | 6.0 | 0.00 | 0.00 | 0.00 | 56 | 1015.7 |
| 20260901165456 | 95 | 291 | 3.0 | 3.0 | 0.00 | 0.00 | 0.00 | 55 | 1015.7 |
| 20260901164952 | 94 | 327 | 3.0 | 8.0 | 0.00 | 0.00 | 0.00 | 58 | 1015.7 |
| 20260901164447 | 95 | 18 | 2.0 | 5.0 | 0.00 | 0.00 | 0.00 | 57 | 1015.5 |
| 20260901163942 | 94 | 331 | 2.0 | 4.0 | 0.00 | 0.00 | 0.00 | 58 | 1015.6 |
| 20260901163438 | 94 | 41 | 2.0 | 5.0 | 0.00 | 0.00 | 0.00 | 59 | 1015.8 |
| 20260901162936 | 92 | 21 | 3.0 | 8.0 | 0.00 | 0.00 | 0.00 | 61 | 1015.8 |
| 20260901162431 | 93 | 90 | 1.0 | 7.0 | 0.00 | 0.00 | 0.00 | 60 | 1015.9 |
| 20260901161925 | 93 | 77 | 0.0 | 4.0 | 0.00 | 0.00 | 0.00 | 60 | 1015.8 |
| 20260901161424 | 93 | 120 | 0.0 | 2.0 | 0.00 | 0.00 | 0.00 | 62 | 1016.0 |
| 20260901160920 | 91 | 16 | 2.0 | 4.0 | 0.00 | 0.00 | 0.00 | 64 | 1016.2 |
| 20260901160416 | 91 | 13 | 4.0 | 9.0 | 0.00 | 0.00 | 0.00 | 65 | 1016.1 |
| 20260901155915 | 93 | 105 | 3.0 | 6.0 | 0.00 | 0.00 | 0.00 | 64 | 1016.3 |
| 20260901155410 | 91 | 35 | 5.0 | 7.0 | 0.00 | 0.00 | 0.00 | 69 | 1016.3 |
| 20260901154907 | 91 | 80 | 2.0 | 3.0 | 0.00 | 0.00 | 0.00 | 69 | 1016.0 |
| 20260901154406 | 91 | 221 | 2.0 | 5.0 | 0.00 | 0.00 | 0.00 | 69 | 1016.1 |
| 20260901153900 | 92 | 353 | 5.0 | 6.0 | 0.00 | 0.00 | 0.00 | 68 | 1016.2 |
| 20260901153354 | 91 | 244 | 3.0 | 4.0 | 0.00 | 0.00 | 0.00 | 68 | 1016.4 |
| 20260901152853 | 91 | 151 | 1.0 | 5.0 | 0.00 | 0.00 | 0.00 | 69 | 1016.3 |
| 20260901152348 | 90 | 29 | 0.0 | 6.0 | 0.00 | 0.00 | 0.00 | 71 | 1016.1 |
| 20260901151843 | 90 | 123 | 2.0 | 2.0 | 0.00 | 0.00 | 0.00 | 70 | 1016.1 |
| 20260901151338 | 90 | 57 | 2.0 | 4.0 | 0.00 | 0.00 | 0.00 | 71 | 1016.3 |
| 20260901150838 | 91 | 0 | 0.0 | 3.0 | 0.00 | 0.00 | 0.00 | 71 | 1016.2 |
| 20260901150335 | 90 | 263 | 3.0 | 5.0 | 0.00 | 0.00 | 0.00 | 72 | 1016.3 |
| 20260901145833 | 90 | 315 | 3.0 | 3.0 | 0.00 | 0.00 | 0.00 | 70 | 1016.2 |
| 20260901145332 | 90 | 278 | 2.0 | 4.0 | 0.00 | 0.00 | 0.00 | 72 | 1016.3 |
| 20260901144827 | 88 | 244 | 3.0 | 6.0 | 0.00 | 0.00 | 0.00 | 74 | 1016.1 |
| 20260901144323 | 88 | 286 | 1.0 | 5.0 | 0.00 | 0.00 | 0.00 | 75 | 1016.1 |
| 20260901143819 | 87 | 247 | 3.0 | 6.0 | 0.00 | 0.00 | 0.00 | 79 | 1016.2 |
| 20260901143315 | 89 | 238 | 4.0 | 6.0 | 0.00 | 0.00 | 0.00 | 76 | 1016.4 |
| 20260901142811 | 89 | 350 | 0.0 | 5.0 | 0.00 | 0.00 | 0.00 | 80 | 1016.5 |
| 20260901142310 | 89 | 14 | 1.0 | 3.0 | 0.00 | 0.00 | 0.00 | 80 | 1016.4 |
| 20260901141800 | 88 | 90 | 0.0 | 2.0 | 0.00 | 0.00 | 0.00 | 82 | 1016.3 |
| 20260901141255 | 87 | 270 | 3.0 | 3.0 | 0.00 | 0.00 | 0.00 | 83 | 1016.5 |
| 20260901140753 | 86 | 331 | 0.0 | 4.0 | 0.00 | 0.00 | 0.00 | 85 | 1016.3 |
| 20260901140252 | 86 | 0 | 1.0 | 3.0 | 0.00 | 0.00 | 0.00 | 85 | 1016.3 |
| 20260901135747 | 85 | 274 | 2.0 | 5.0 | 0.00 | 0.00 | 0.00 | 86 | 1016.4 |
| 20260901135242 | 85 | 0 | 1.0 | 3.0 | 0.00 | 0.00 | 0.00 | 86 | 1016.4 |
| 20260901134738 | 84 | 352 | 0.0 | 3.0 | 0.00 | 0.00 | 0.00 | 87 | 1016.4 |
| 20260901134237 | 82 | 10 | 3.0 | 3.0 | 0.00 | 0.00 | 0.00 | 89 | 1016.3 |
| 20260901133736 | 82 | 78 | 2.0 | 4.0 | 0.00 | 0.00 | 0.00 | 89 | 1016.3 |
| 20260901133231 | 82 | 7 | 2.0 | 2.0 | 0.00 | 0.00 | 0.00 | 88 | 1016.4 |
| 20260901132729 | 82 | 26 | 0.0 | 2.0 | 0.00 | 0.00 | 0.00 | 91 | 1016.6 |
| 20260901132225 | 80 | 90 | 0.0 | 2.0 | 0.00 | 0.00 | 0.00 | 95 | 1016.6 |
| 20260901131719 | 78 | 261 | 0.0 | 0.0 | 0.00 | 0.00 | 0.00 | 99 | 1016.6 |
| 20260901131219 | 77 | 261 | 0.0 | 0.0 | 0.00 | 0.00 | 0.00 | 99 | 1016.5 |
| 20260901130714 | 75 | 261 | 0.0 | 0.0 | 0.00 | 0.00 | 0.00 | 99 | 1016.2 |
| 20260901130213 | 75 | 261 | 0.0 | 0.0 | 0.00 | 0.00 | 0.00 | 99 | 1016.1 |
| 20260901125711 | 75 | 261 | 0.0 | 0.0 | 0.00 | 0.00 | 0.00 | 99 | 1016.0 |
| 20260901125207 | 75 | 261 | 0.0 | 0.0 | 0.00 | 0.00 | 0.00 | 99 | 1016.2 |
| 20260901124701 | 75 | 90 | 0.0 | 0.0 | 0.00 | 0.00 | 0.00 | 99 | 1016.1 |
| 20260901124200 | 75 | 90 | 0.0 | 0.0 | 0.00 | 0.00 | 0.00 | 99 | 1016.1 |
| 20260901123655 | 74 | 90 | 0.0 | 0.0 | 0.00 | 0.00 | 0.00 | 99 | 1016.0 |
| 20260901123155 | 73 | 90 | 0.0 | 0.0 | 0.00 | 0.00 | 0.00 | 99 | 1015.8 |
| 20260901122653 | 73 | 90 | 0.0 | 0.0 | 0.00 | 0.00 | 0.00 | 99 | 1015.8 |
| 20260901122148 | 73 | 90 | 0.0 | 0.0 | 0.00 | 0.00 | 0.00 | 99 | 1015.7 |
| 20260901121643 | 73 | 90 | 0.0 | 0.0 | 0.00 | 0.00 | 0.00 | 99 | 1015.7 |
| 20260901121138 | 73 | 270 | 0.0 | 0.0 | 0.00 | 0.00 | 0.00 | 99 | 1015.6 |
| 20260901120633 | 73 | 270 | 0.0 | 1.0 | 0.00 | 0.00 | 0.00 | 99 | 1015.4 |
| 20260901120128 | 73 | 270 | 0.0 | 0.0 | 0.00 | 0.00 | 0.00 | 99 | 1015.7 |
| 20260901115623 | 73 | 270 | 0.0 | 1.0 | 0.00 | 0.00 | 0.00 | 99 | 1015.3 |
| 20260901115119 | 73 | 270 | 0.0 | 2.0 | 0.00 | 0.00 | 0.00 | 99 | 1015.6 |
| 20260901114615 | 72 | 279 | 0.0 | 0.0 | 0.00 | 0.00 | 0.00 | 99 | 1015.7 |
| 20260901114109 | 73 | 279 | 0.0 | 1.0 | 0.00 | 0.00 | 0.00 | 99 | 1015.5 |
| 20260901113607 | 73 | 84 | 0.0 | 0.0 | 0.00 | 0.00 | 0.00 | 99 | 1015.6 |
| 20260901113103 | 73 | 84 | 0.0 | 0.0 | 0.00 | 0.00 | 0.00 | 99 | 1015.5 |
| 20260901112602 | 73 | 84 | 0.0 | 0.0 | 0.00 | 0.00 | 0.00 | 99 | 1015.7 |
| 20260901112057 | 73 | 84 | 0.0 | 0.0 | 0.00 | 0.00 | 0.00 | 99 | 1015.4 |
| 20260901111556 | 73 | 84 | 0.0 | 0.0 | 0.00 | 0.00 | 0.00 | 99 | 1015.4 |
| 20260901111054 | 73 | 84 | 0.0 | 0.0 | 0.00 | 0.00 | 0.00 | 99 | 1015.4 |
| 20260901110545 | 73 | 84 | 0.0 | 0.0 | 0.00 | 0.00 | 0.00 | 99 | 1015.3 |
| 20260901110040 | 73 | 84 | 0.0 | 0.0 | 0.00 | 0.00 | 0.00 | 99 | 1015.2 |
| 20260901105537 | 73 | 84 | 0.0 | 0.0 | 0.00 | 0.00 | 0.00 | 99 | 1015.2 |
| 20260901105030 | 74 | 84 | 0.0 | 0.0 | 0.00 | 0.00 | 0.00 | 99 | 1015.2 |
| 20260901104527 | 74 | 84 | 0.0 | 0.0 | 0.00 | 0.00 | 0.00 | 99 | 1015.1 |
| 20260901104022 | 73 | 35 | 1.0 | 1.0 | 0.00 | 0.00 | 0.00 | 99 | 1015.3 |
| 20260901103522 | 74 | 90 | 0.0 | 0.0 | 0.00 | 0.00 | 0.00 | 99 | 1015.0 |
| 20260901103017 | 74 | 90 | 0.0 | 0.0 | 0.00 | 0.00 | 0.00 | 99 | 1015.1 |
| 20260901102512 | 74 | 90 | 0.0 | 0.0 | 0.00 | 0.00 | 0.00 | 99 | 1015.0 |
| 20260901102006 | 74 | 90 | 0.0 | 0.0 | 0.00 | 0.00 | 0.00 | 98 | 1014.9 |
| 20260901101502 | 74 | 60 | 0.0 | 1.0 | 0.00 | 0.00 | 0.00 | 98 | 1015.1 |
| 20260901100956 | 74 | 0 | 0.0 | 0.0 | 0.00 | 0.00 | 0.00 | 98 | 1014.9 |
| 20260901100450 | 74 | 0 | 0.0 | 0.0 | 0.00 | 0.00 | 0.00 | 98 | 1015.0 |
| 20260901095949 | 74 | 0 | 0.0 | 0.0 | 0.00 | 0.00 | 0.00 | 98 | 1014.9 |
| 20260901095449 | 75 | 0 | 0.0 | 1.0 | 0.00 | 0.00 | 0.00 | 98 | 1015.1 |
| 20260901094941 | 74 | 300 | 0.0 | 1.0 | 0.00 | 0.00 | 0.00 | 98 | 1014.9 |
| 20260901094441 | 75 | 74 | 0.0 | 0.0 | 0.00 | 0.00 | 0.00 | 97 | 1015.1 |
| 20260901093935 | 75 | 74 | 0.0 | 0.0 | 0.00 | 0.00 | 0.00 | 97 | 1015.1 |
| 20260901093430 | 75 | 74 | 0.0 | 0.0 | 0.00 | 0.00 | 0.00 | 97 | 1015.2 |
| 20260901092925 | 75 | 74 | 0.0 | 0.0 | 0.00 | 0.00 | 0.00 | 97 | 1015.0 |
| 20260901092421 | 75 | 74 | 0.0 | 0.0 | 0.00 | 0.00 | 0.00 | 97 | 1015.1 |
| 20260901091917 | 76 | 74 | 0.0 | 0.0 | 0.00 | 0.00 | 0.00 | 96 | 1015.2 |
| 20260901091416 | 76 | 74 | 0.0 | 0.0 | 0.00 | 0.00 | 0.00 | 96 | 1015.4 |
| 20260901090912 | 76 | 286 | 0.0 | 0.0 | 0.00 | 0.00 | 0.00 | 96 | 1015.1 |
| 20260901090411 | 76 | 74 | 0.0 | 0.0 | 0.00 | 0.00 | 0.00 | 96 | 1015.2 |
| 20260901085907 | 76 | 74 | 0.0 | 1.0 | 0.00 | 0.00 | 0.00 | 95 | 1015.0 |
| 20260901085403 | 77 | 23 | 0.0 | 0.0 | 0.00 | 0.00 | 0.00 | 95 | 1015.2 |
| 20260901084859 | 77 | 23 | 0.0 | 0.0 | 0.00 | 0.00 | 0.00 | 95 | 1014.8 |
| 20260901084354 | 77 | 23 | 0.0 | 0.0 | 0.00 | 0.00 | 0.00 | 94 | 1015.1 |
| 20260901083849 | 77 | 23 | 0.0 | 0.0 | 0.00 | 0.00 | 0.00 | 94 | 1015.2 |
| 20260901083344 | 77 | 23 | 0.0 | 0.0 | 0.00 | 0.00 | 0.00 | 94 | 1015.3 |
| 20260901082842 | 77 | 23 | 0.0 | 1.0 | 0.00 | 0.00 | 0.00 | 93 | 1015.3 |
| 20260901082338 | 77 | 54 | 1.0 | 2.0 | 0.00 | 0.00 | 0.00 | 93 | 1015.2 |
| 20260901081833 | 77 | 270 | 0.0 | 0.0 | 0.00 | 0.00 | 0.00 | 92 | 1015.2 |
| 20260901081328 | 78 | 254 | 0.0 | 1.0 | 0.00 | 0.00 | 0.00 | 92 | 1015.2 |
| 20260901080828 | 78 | 23 | 0.0 | 0.0 | 0.00 | 0.00 | 0.00 | 91 | 1015.3 |
| 20260901080322 | 78 | 23 | 0.0 | 0.0 | 0.00 | 0.00 | 0.00 | 90 | 1015.2 |
| 20260901075816 | 79 | 203 | 0.0 | 0.0 | 0.00 | 0.00 | 0.00 | 90 | 1015.3 |
| 20260901075311 | 79 | 203 | 0.0 | 0.0 | 0.00 | 0.00 | 0.00 | 89 | 1015.5 |
| 20260901074807 | 80 | 203 | 0.0 | 0.0 | 0.00 | 0.00 | 0.00 | 89 | 1015.4 |
| 20260901074301 | 80 | 203 | 0.0 | 0.0 | 0.00 | 0.00 | 0.00 | 89 | 1015.2 |
| 20260901073757 | 80 | 209 | 0.0 | 3.0 | 0.00 | 0.00 | 0.00 | 88 | 1015.5 |
| 20260901073252 | 80 | 257 | 0.0 | 3.0 | 0.00 | 0.00 | 0.00 | 88 | 1015.3 |
| 20260901072748 | 80 | 233 | 0.0 | 3.0 | 0.00 | 0.00 | 0.00 | 88 | 1015.2 |
| 20260901072243 | 80 | 240 | 0.0 | 2.0 | 0.00 | 0.00 | 0.00 | 88 | 1015.4 |
| 20260901071743 | 80 | 139 | 0.0 | 2.0 | 0.00 | 0.00 | 0.00 | 88 | 1015.4 |
| 20260901071242 | 80 | 75 | 0.0 | 2.0 | 0.00 | 0.00 | 0.00 | 88 | 1015.4 |
| 20260901070740 | 80 | 114 | 0.0 | 0.0 | 0.00 | 0.00 | 0.00 | 88 | 1015.5 |
| 20260901070236 | 80 | 126 | 1.0 | 1.0 | 0.00 | 0.00 | 0.00 | 88 | 1015.6 |
| 20260901065736 | 80 | 151 | 0.0 | 1.0 | 0.00 | 0.00 | 0.00 | 88 | 1015.7 |